This demonstration page uses our WeatherBlox Daily Observations layout. Learn more.

Left ArrowRight Arrow

Hourly Observations for June 13, 2018

Temp ( °F °C ) Dew Point ( °F °C ) Humidity (%) Winds ( mph kmh ) Pressure ( in mb ) Visibility ( mi km ) Precip ( " mm )
12:53 am 00:53 Clear 68 20 61 16.1 78 78 NE 9 15 30.01 1016 10 16 0.00 0.00
1:53 am 01:53 Clear 66 18.9 60 15.6 81 81 NE 10 17 30.03 1017 10 16 0.00 0.00
2:53 am 02:53 Clear 65 18.3 59 15 81 81 NE 9 15 30.03 1017 10 16 0.00 0.00
3:53 am 03:53 Clear 64 17.8 58 14.4 81 81 ENE 13 20 30.01 1016 10 16 0.00 0.00
4:53 am 04:53 Clear 63 17.2 56 13.3 78 78 E 9 15 30.02 1017 10 16 0.00 0.00
5:53 am 05:53 Clear 62 16.7 55 12.8 78 78 E 9 15 30.03 1017 10 16 0.00 0.00
6:53 am 06:53 Sunny 62 16.7 56 13.3 80 80 E 7 11 30.07 1018 10 16 0.00 0.00
7:53 am 07:53 Partly Cloudy 64 17.8 57 13.9 78 78 E 10 17 30.07 1018 10 16 0.00 0.00
8:53 am 08:53 Sunny 68 20 58 14.4 70 70 ESE 10 17 30.07 1018 10 16 0.00 0.00
9:53 am 09:53 Sunny with Light Rain 71 21.7 60 15.6 68 68 ESE 14 22 30.05 1018 10 16 0.00 0.03
10:53 am 10:53 Sunny with Light Rain 74 23.3 61 16.1 64 64 ESE 14 22 30.02 1017 10 16 0.00 0.03
11:53 am 11:53 Mostly Cloudy with Light Rain 75 23.9 59 15 58 58 SE 15 24 30.06 1018 10 16 0.00 0.03
12:53 pm 12:53 Mostly Cloudy with Light Rain 75 23.9 59 15 58 58 ESE 13 20 30.04 1017 10 16 0.00 0.03
1:53 pm 13:53 Mostly Cloudy with Light Rain 76 24.4 59 15 56 56 SSE 15 24 30.04 1017 10 16 0.00 0.03
2:53 pm 14:53 Sunny 79 26.1 59 15 50 50 SE 15 24 29.98 1015 10 16 0.00 0.03
3:53 pm 15:53 Sunny 79 26.1 59 15 50 50 SE 17 28 29.92 1013 10 16 0.00 0.00
4:53 pm 16:53 Sunny 79 26.1 58 14.4 49 49 SE 20 31 29.93 1014 10 16 0.00 0.00
5:53 pm 17:53 Sunny 79 26.1 60 15.6 52 52 SSE 17 28 29.91 1013 10 16 0.00 0.00
6:53 pm 18:53 Sunny 79 26.1 61 16.1 54 54 SSE 15 24 29.90 1013 10 16 0.00 0.00
7:53 pm 19:53 Sunny 77 25 61 16.1 58 58 SSE 13 20 29.91 1013 10 16 0.00 0.00
8:53 pm 20:53 Sunny 74 23.3 60 15.6 62 62 SE 13 20 29.91 1013 10 16 0.00 0.00
9:53 pm 21:53 Clear 72 22.2 60 15.6 66 66 ESE 13 20 29.90 1013 10 16 0.00 0.00
10:53 pm 22:53 Clear 72 22.2 59 15 64 64 SE 14 22 29.90 1013 10 16 0.00 0.00
11:53 pm 23:53 Clear 70 21.1 59 15 68 68 SE 13 20 29.88 1012 10 16 0.00 0.00

Powered by AerisWeather